This is the latest recevied weather packets stored in our database for station/object N5KJT. If no packets are shown the sender has not sent any weather packets the latest 10 day(s).
| Time | Temp. | Humidity | Pressure | Rain* | Wind** | Luminosity | Snow |
|---|---|---|---|---|---|---|---|
| 1787803216 | 22.22° C | 54% | 1029.3 hPa | 0 mm | - | 0 W/m² | - |
| 1787802916 | 22.22° C | 52% | 1029.3 hPa | 0 mm | - | 0 W/m² | - |
| 1787802616 | 22.22° C | 52% | 1029.4 hPa | 0 mm | - | 0 W/m² | - |
| 1787802316 | 22.22° C | 53% | 1029.2 hPa | 0 mm | - | 0 W/m² | - |
| 1787802016 | 21.11° C | 58% | 1029.2 hPa | 0 mm | - | 0 W/m² | - |
| 1787801716 | 21.67° C | 57% | 1028.7 hPa | 0 mm | - | 0 W/m² | - |
| 1787801416 | 22.22° C | 54% | 1028.5 hPa | 0 mm | - | 0 W/m² | - |
| 1787801116 | 22.22° C | 54% | 1028.4 hPa | 0 mm | - | 0 W/m² | - |
| 1787800816 | 22.22° C | 53% | 1028.5 hPa | 0 mm | - | 0 W/m² | - |
| 1787800516 | 22.22° C | 52% | 1028.5 hPa | 0 mm | - | 0 W/m² | - |
| 1787800216 | 22.22° C | 52% | 1028.4 hPa | 0 mm | - | 0 W/m² | - |
| 1787799916 | 22.22° C | 52% | 1028.4 hPa | 0 mm | - | 0 W/m² | - |
| 1787799616 | 22.22° C | 51% | 1028.3 hPa | 0 mm | - | 0 W/m² | - |
| 1787799316 | 22.22° C | 52% | 1028.3 hPa | 0 mm | - | 0 W/m² | - |
| 1787799016 | 22.78° C | 52% | 1028.2 hPa | 0 mm | - | 0 W/m² | - |
| 1787798716 | 22.78° C | 52% | 1028.2 hPa | 0 mm | - | 0 W/m² | - |
| 1787798416 | 22.78° C | 52% | 1028.1 hPa | 0 mm | - | 0 W/m² | - |
| 1787798116 | 22.78° C | 51% | 1028.1 hPa | 0 mm | - | 0 W/m² | - |
| 1787797816 | 22.78° C | 51% | 1028.1 hPa | 0 mm | - | 0 W/m² | - |
| 1787797516 | 22.78° C | 51% | 1027.9 hPa | 0 mm | - | 0 W/m² | - |
| 1787797216 | 22.22° C | 50% | 1027.6 hPa | 0 mm | - | 0 W/m² | - |
| 1787796916 | 22.22° C | 50% | 1027.5 hPa | 0 mm | - | 0 W/m² | - |
| 1787796616 | 22.22° C | 55% | 1027.4 hPa | 0 mm | - | 0 W/m² | - |
| 1787796316 | 22.78° C | 58% | 1027.3 hPa | 0 mm | - | 0 W/m² | - |
| 1787796016 | 23.33° C | 57% | 1027.1 hPa | 0 mm | - | 0 W/m² | - |
* Rain latest hour (hover to see other rain measurements)
** Current wind speed in m/s (hover to see current wind gust speed)